IRIDIUM 168

Last updated on Tue Sep 22 2026 00:03:21 GMT+0000 (Coordinated Universal Time)

1 43924U 19002C 26263.85202511 .00000113 00000+0 33422-4 0 9999 2 43924 86.3974 313.7098 0002258 95.1510 264.9944 14.34217397402689
UTC large
Height (km)
Speed (km/s)
/
Latitude / Longitude
Inclination (degrees)
Orbital Period (minutes)
Azimuth
Elevation
Range (km)
Doppler Factor

Next 0 passes for location: London (51.5072 / 0.1276)

No passes found over London.
IRIDIUM 168